Regional Weather Roundup
Issued by NWS

Home | Current Version | Previous Version | Graphics & Text | Print | Product List | Glossary On
Versions: 1 2 3 4 5 6 7 8 9 10 11 12 13 14 15 16 17 18 19 20 21 22 23 24 25 26 27 28 29 30 31 32 33 34 35 36 37 38 39 40 41 42 43 44 45 46 47 48 49 50
000
ASUS43 KBIS 161359
RWRND

NORTH DAKOTA REGIONAL WEATHER ROUNDUP
NATIONAL WEATHER SERVICE BISMARCK ND
900 AM CDT WED APR 16 2014

NOTE: "FAIR" INDICATES FEW OR NO CLOUDS BELOW 12,000 FEET WITH NO
SIGNIFICANT WEATHER AND/OR OBSTRUCTIONS TO VISIBILITY.


NDZ001>003-009>011-017-161500-
NORTHWEST NORTH DAKOTA

CITY           SKY/WX    TMP DP  RH WIND       PRES   REMARKS
WILLISTON      CLOUDY    25  20  81 E15       30.05R WCI  13
MINOT          CLOUDY    23  18  81 NE13      30.07R WCI  11
$$

NDZ018>021-031>035-040>046-161500-
SOUTHWEST NORTH DAKOTA

CITY           SKY/WX    TMP DP  RH WIND       PRES   REMARKS
BISMARCK       CLOUDY    28  23  81 E20       29.98R WCI  15
DICKINSON      CLOUDY    25  19  78 NE14      29.92R WCI  13
GARRISON         N/A     24  20  84 E16G24    30.02R WCI  11
HETTINGER ARPT PTSUNNY   27  17  66 NE15G24   29.90R WCI  15
$$

NDZ004>008-012>016-024-026-027-054-161500-
NORTHEAST NORTH DAKOTA

CITY           SKY/WX    TMP DP  RH WIND       PRES   REMARKS
GRAND FORKS    CLOUDY    30  11  45 E17       30.06R WCI  18
DEVILS LAKE    CLOUDY    27  10  50 NE20      30.07R WCI  13
$$

NDZ022-023-025-028>030-036>039-047>053-161500-
SOUTHEAST NORTH DAKOTA

CITY           SKY/WX    TMP DP  RH WIND       PRES   REMARKS
FARGO          CLOUDY    28  22  78 NE20      30.01R WCI  15
$$




USA.gov is the U.S. government's official web portal to all federal, state and local government web resources and services.